User: anonymous   Login
Location: Oshawa
(43.9000°N, 78.8670°W)
Time: 03:06:47
(UTC-04:00)
Language:

Cosmos 1408 Rocket - Orbit

View from above orbital plane
View from above orbital plane
View from above satellite
View from above satellite

Ground track
Ground track

The orbit data is extracted from the following two-line orbital elements,

1 13553U 82092B   16241.21783243  .00000080  00000-0  66786-5 0  9998
2 13553  82.5710 147.0344 0020010 294.9086 225.8041 14.84072846833589
Epoch (UTC): 28 August 2016 05:13:40
Eccentricity: 0.0020010
inclination: 82.5710°
perigee height: 602 km
apogee height: 630 km
right ascension of ascending node: 147.0344°
argument of perigee: 294.9086°
revolutions per day: 14.84072846
mean anomaly at epoch: 225.8041°
orbit number at epoch: 83358

The dashed part of the orbit path shows where the satellite is in the earth's shadow,  

DLR